CW1792 Weather Reports


Display with metric or nautical units.
time (UTC)temp
F
wind
direction
speed
MPH
gust
MPH
rain 1hr
in
rain 24hr
in
rain mn
in
humidity
%
barometer
mb
20180426132703 55 59 0.0 0.0 0.00 0.00 0.00 80 1016.7
20180426132204 55 30 0.0 0.0 0.00 0.00 0.00 80 1016.6
20180426131703 55 30 0.0 0.0 0.00 0.00 0.00 80 1016.6
20180426131204 55 30 0.0 2.0 0.00 0.00 0.00 80 1016.6
20180426130704 55 70 1.0 3.0 0.00 0.00 0.00 80 1016.6
20180426130204 55 356 0.0 0.0 0.00 0.00 0.00 80 1016.6
20180426125704 55 356 0.0 0.0 0.00 0.00 0.00 80 1016.6
20180426125204 55 356 0.0 0.0 0.00 0.00 0.00 80 1016.5
20180426124703 55 356 0.0 0.0 0.00 0.00 0.00 80 1016.5
20180426124204 55 92 0.0 0.0 0.00 0.00 0.00 80 1016.5
20180426123704 55 92 0.0 0.0 0.00 0.00 0.00 81 1016.5
20180426123204 55 92 0.0 0.0 0.00 0.00 0.00 81 1016.5
20180426122704 55 92 0.0 0.0 0.00 0.00 0.00 81 1016.5
20180426122204 55 92 0.0 0.0 0.00 0.00 0.00 81 1016.6
20180426121704 55 92 0.0 0.0 0.00 0.00 0.00 81 1016.6
20180426121204 55 92 0.0 0.0 0.00 0.00 0.00 82 1016.6
20180426120704 55 92 0.0 0.0 0.00 0.00 0.00 82 1016.6
20180426120204 55 92 0.0 0.0 0.00 0.00 0.00 82 1016.6
20180426115704 55 92 0.0 0.0 0.00 0.00 0.00 82 1016.6
20180426115204 55 92 0.0 0.0 0.00 0.00 0.00 81 1016.6
20180426114704 55 92 0.0 0.0 0.00 0.00 0.00 82 1016.6
20180426114204 55 92 0.0 0.0 0.00 0.00 0.00 82 1016.6
20180426113704 55 92 0.0 1.0 0.00 0.00 0.00 81 1016.6
20180426113204 55 92 0.0 0.0 0.00 0.00 0.00 81 1016.6
20180426112703 55 92 0.0 0.0 0.00 0.00 0.00 81 1016.7
20180426112203 55 92 0.0 0.0 0.00 0.00 0.00 81 1016.7
20180426111704 55 92 0.0 1.0 0.00 0.00 0.00 81 1016.6
20180426111204 55 94 0.0 1.0 0.00 0.00 0.00 80 1016.6
20180426110704 55 96 0.0 0.0 0.00 0.00 0.00 80 1016.7
20180426110204 55 96 0.0 0.0 0.00 0.00 0.00 80 1016.7
20180426105204 55 96 0.0 0.0 0.00 0.00 0.00 81 1016.6
20180426104704 55 96 0.0 1.0 0.00 0.00 0.00 81 1016.7
20180426104204 55 125 0.0 2.0 0.00 0.00 0.00 81 1016.7
20180426103703 55 90 0.0 2.0 0.00 0.00 0.00 81 1016.7
20180426103203 55 102 0.0 1.0 0.00 0.00 0.00 81 1016.7
20180426102703 55 104 0.0 0.0 0.00 0.00 0.00 81 1016.7
20180426102204 55 104 0.0 0.0 0.00 0.00 0.00 81 1016.7
20180426101703 55 104 0.0 0.0 0.00 0.00 0.00 81 1016.7
20180426101204 55 104 0.0 0.0 0.00 0.00 0.00 81 1016.6
20180426100703 55 104 0.0 0.0 0.00 0.00 0.00 80 1016.7
20180426095704 55 104 0.0 0.0 0.00 0.00 0.00 80 1016.8
20180426095203 55 104 0.0 0.0 0.00 0.00 0.00 80 1016.8
20180426094704 55 104 0.0 0.0 0.00 0.00 0.00 80 1016.8
20180426094204 55 99 0.0 1.0 0.00 0.00 0.00 79 1016.8
20180426093704 55 30 0.0 0.0 0.00 0.00 0.00 79 1016.8
20180426093203 55 30 0.0 0.0 0.00 0.00 0.00 78 1016.8
20180426092703 55 30 0.0 0.0 0.00 0.00 0.00 79 1016.9
20180426092203 55 30 0.0 0.0 0.00 0.00 0.00 79 1017.0
20180426091712 55 42 0.0 0.0 0.00 0.00 0.00 79 1017.0
20180426091204 55 42 0.0 0.0 0.00 0.00 0.00 79 1017.1
20180426090703 55 42 0.0 0.0 0.00 0.00 0.00 79 1017.1
20180426090204 55 42 0.0 0.0 0.00 0.00 0.00 79 1017.1
20180426085205 56 41 0.0 0.0 0.00 0.00 0.00 79 1017.2
20180426084706 56 41 0.0 0.0 0.00 0.00 0.00 79 1017.3
20180426083706 56 41 0.0 0.0 0.00 0.00 0.00 78 1017.3
20180426083206 56 41 0.0 0.0 0.00 0.00 0.00 79 1017.3
20180426082705 56 41 0.0 0.0 0.00 0.00 0.00 78 1017.4
20180426082205 56 41 0.0 0.0 0.00 0.00 0.00 78 1017.4
20180426081705 56 41 0.0 0.0 0.00 0.00 0.00 78 1017.4
20180426081205 56 41 0.0 0.0 0.00 0.00 0.00 78 1017.4
20180426080705 56 41 0.0 0.0 0.00 0.00 0.00 78 1017.4
20180426080206 56 41 0.0 0.0 0.00 0.00 0.00 78 1017.5
20180426075707 56 8 0.0 0.0 0.00 0.00 0.00 78 1017.6
20180426075206 56 8 0.0 0.0 0.00 0.00 0.00 78 1017.6
20180426074705 56 7 0.0 0.0 0.00 0.00 0.00 78 1017.6
20180426074206 56 7 0.0 1.0 0.00 0.00 0.00 78 1017.6
20180426073705 56 61 0.0 0.0 0.00 0.00 0.00 78 1017.6
20180426073205 56 61 0.0 0.0 0.00 0.00 0.00 78 1017.6
20180426072705 56 61 0.0 0.0 0.00 0.00 0.00 78 1017.7
20180426072206 56 61 0.0 3.0 0.00 0.00 0.00 78 1017.6
20180426071705 56 38 0.0 0.0 0.00 0.00 0.00 77 1017.6
20180426071206 56 41 0.0 0.0 0.00 0.00 0.00 78 1017.6
20180426070705 57 38 0.0 0.0 0.00 0.00 0.00 78 1017.6
20180426070206 57 36 0.0 0.0 0.00 0.00 0.00 77 1017.6
20180426065705 57 7 0.0 2.0 0.00 0.00 0.00 77 1017.6
20180426065206 57 58 0.0 0.0 0.00 0.00 0.00 77 1017.6
20180426064706 57 65 0.0 1.0 0.00 0.00 0.00 78 1017.6
20180426064206 57 55 0.0 0.0 0.00 0.00 0.00 78 1017.6
20180426063706 57 55 0.0 0.0 0.00 0.00 0.00 77 1017.6
20180426063206 57 55 0.0 0.0 0.00 0.00 0.00 77 1017.6
20180426062706 57 44 0.0 0.0 0.00 0.00 0.00 77 1017.7
20180426062206 57 44 0.0 0.0 0.00 0.00 0.00 76 1017.7
20180426061706 57 49 0.0 0.0 0.00 0.00 0.00 76 1017.7
20180426061206 57 49 0.0 1.0 0.00 0.00 0.00 76 1017.6
20180426060705 57 27 0.0 3.0 0.00 0.00 0.00 75 1017.6
20180426060206 57 5 1.0 3.0 0.00 0.00 0.00 75 1017.6
20180426055705 57 59 0.0 6.0 0.00 0.00 0.00 75 1017.7
20180426055206 57 25 1.0 5.0 0.00 0.00 0.00 75 1017.7
20180426054706 57 41 2.0 7.0 0.00 0.00 0.00 75 1017.8
20180426054205 57 27 1.0 3.0 0.00 0.00 0.00 75 1017.8
20180426053706 57 23 1.0 3.0 0.00 0.00 0.00 75 1017.8
20180426053206 57 11 0.0 3.0 0.00 0.00 0.00 75 1017.8
20180426052706 58 17 1.0 3.0 0.00 0.00 0.00 75 1017.8
20180426052206 58 35 0.0 6.0 0.00 0.00 0.00 75 1017.8
20180426051706 58 44 1.0 3.0 0.00 0.00 0.00 76 1017.8
20180426051206 58 62 2.0 6.0 0.00 0.00 0.00 75 1017.8
20180426050705 58 52 1.0 3.0 0.00 0.00 0.00 74 1017.8
20180426050206 58 352 0.0 0.0 0.00 0.00 0.00 74 1017.8
20180426045705 58 352 0.0 0.0 0.00 0.00 0.00 74 1017.9
20180426045206 58 352 0.0 2.0 0.00 0.00 0.00 74 1017.8
20180426044706 59 351 0.0 0.0 0.00 0.00 0.00 74 1017.8
20180426044206 59 353 0.0 3.0 0.00 0.00 0.00 74 1017.7
20180426043705 59 4 1.0 3.0 0.00 0.00 0.00 74 1017.7
20180426043205 59 35 0.0 0.0 0.00 0.00 0.00 74 1017.7
20180426042705 59 35 0.0 0.0 0.00 0.00 0.00 73 1017.6
20180426042205 59 35 0.0 3.0 0.00 0.00 0.00 73 1017.6
20180426041706 60 18 1.0 5.0 0.00 0.00 0.00 73 1017.6
20180426041206 60 36 1.0 5.0 0.00 0.00 0.00 73 1017.4
20180426040705 60 25 1.0 3.0 0.00 0.00 0.00 72 1017.3
20180426040206 60 24 1.0 3.0 0.00 0.00 0.00 71 1017.3
20180426035705 60 1 1.0 5.0 0.00 0.00 0.00 71 1017.3
20180426035205 60 76 0.0 2.0 0.00 0.00 0.00 70 1017.3
20180426034705 61 17 1.0 3.0 0.00 0.00 0.00 70 1017.2
20180426034206 61 331 0.0 3.0 0.00 0.00 0.00 69 1017.2
20180426033706 61 8 2.0 6.0 0.00 0.00 0.00 69 1017.2
20180426033206 61 27 0.0 3.0 0.00 0.00 0.00 69 1017.1
20180426032705 61 2 1.0 5.0 0.00 0.00 0.00 69 1017.1
20180426032205 62 6 1.0 3.0 0.00 0.00 0.00 69 1017.0
20180426031706 62 20 1.0 3.0 0.00 0.00 0.00 69 1017.0
20180426031206 62 14 1.0 3.0 0.00 0.00 0.00 68 1016.8
20180426030705 62 28 0.0 1.0 0.00 0.00 0.00 68 1016.8
20180426030206 62 48 1.0 3.0 0.00 0.00 0.00 68 1016.8
20180426025705 63 6 0.0 3.0 0.00 0.00 0.00 66 1016.7
20180426025205 63 29 1.0 5.0 0.00 0.00 0.00 66 1016.7
20180426024706 63 358 1.0 7.0 0.00 0.00 0.00 66 1016.6
20180426024206 63 357 3.0 7.0 0.00 0.00 0.00 65 1016.6
20180426023706 63 5 3.0 6.0 0.00 0.00 0.00 65 1016.5
20180426023206 64 351 2.0 6.0 0.00 0.00 0.00 65 1016.5
20180426022705 64 345 2.0 7.0 0.00 0.00 0.00 64 1016.5
20180426022206 64 326 2.0 3.0 0.00 0.00 0.00 64 1016.3
20180426021706 64 340 3.0 8.0 0.00 0.00 0.00 63 1016.2
20180426021206 65 356 3.0 6.0 0.00 0.00 0.00 63 1016.2
20180426020705 65 344 3.0 8.0 0.00 0.00 0.00 62 1016.2
20180426020206 65 0 3.0 6.0 0.00 0.00 0.00 62 1016.2
20180426015706 66 4 3.0 7.0 0.00 0.00 0.00 62 1016.2
20180426015205 66 8 2.0 8.0 0.00 0.00 0.00 61 1016.2
20180426014705 66 0 3.0 6.0 0.00 0.00 0.00 61 1016.1
20180426014206 66 348 3.0 6.0 0.00 0.00 0.00 60 1016.1
20180426013705 66 341 4.0 8.0 0.00 0.00 0.00 60 1016.1
20180426013205 67 354 2.0 7.0 0.00 0.00 0.00 60 1016.1
20180426012706 67 355 3.0 9.0 0.00 0.00 0.00 60 1016.0
20180426012205 67 325 3.0 8.0 0.00 0.00 0.00 59 1016.0
20180426011705 67 318 2.0 8.0 0.00 0.00 0.00 59 1016.0
20180426011205 68 357 2.0 7.0 0.00 0.00 0.00 59 1016.0
20180426010705 68 1 2.0 8.0 0.00 0.00 0.00 59 1016.0
20180426010206 68 15 4.0 7.0 0.00 0.00 0.00 59 1016.0
20180426005705 68 1 3.0 8.0 0.00 0.00 0.00 59 1016.0
20180426005206 68 349 3.0 10.0 0.00 0.00 0.00 59 1016.0
20180426004705 68 356 3.0 6.0 0.00 0.00 0.00 58 1016.1
20180426004205 68 342 3.0 8.0 0.00 0.00 0.00 58 1016.1
20180426003706 69 323 4.0 8.0 0.00 0.00 0.00 58 1016.0
20180426003205 69 0 3.0 10.0 0.00 0.00 0.00 57 1016.0
20180426002705 69 339 3.0 10.0 0.00 0.00 0.00 57 1016.0
20180426002205 69 16 2.0 7.0 0.00 0.00 0.00 57 1016.0
20180426001706 69 357 4.0 9.0 0.00 0.00 0.00 57 1016.0
20180426001205 70 331 3.0 8.0 0.00 0.00 0.00 56 1016.0
20180426000705 70 346 5.0 10.0 0.00 0.00 0.00 56 1016.0
20180426000205 70 330 5.0 8.0 0.00 0.00 0.00 56 1016.0
20180425235705 70 58 4.0 12.0 0.00 0.00 0.00 56 1015.9
20180425235205 70 349 3.0 12.0 0.00 0.00 0.00 55 1016.0
20180425234705 71 328 6.0 10.0 0.00 0.00 0.00 55 1016.0
20180425234206 71 348 4.0 12.0 0.00 0.00 0.00 55 1016.0
20180425233705 71 16 6.0 12.0 0.00 0.00 0.00 55 1016.1
20180425233205 71 318 3.0 12.0 0.00 0.00 0.00 55 1016.1
20180425232705 71 353 2.0 9.0 0.00 0.00 0.00 55 1016.1
20180425232206 71 348 5.0 12.0 0.00 0.00 0.00 54 1016.1
20180425231706 71 4 3.0 7.0 0.00 0.00 0.00 55 1016.1
20180425231205 71 320 5.0 12.0 0.00 0.00 0.00 54 1016.2
20180425230705 71 342 5.0 8.0 0.00 0.00 0.00 53 1016.2
20180425230206 71 300 4.0 8.0 0.00 0.00 0.00 55 1016.2
20180425225705 71 327 3.0 8.0 0.00 0.00 0.00 54 1016.2
20180425225205 71 317 3.0 12.0 0.00 0.00 0.00 54 1016.4
20180425224705 71 339 2.0 8.0 0.00 0.00 0.00 54 1016.4
20180425224205 72 335 6.0 12.0 0.00 0.00 0.00 54 1016.4
20180425223705 72 21 5.0 10.0 0.00 0.00 0.00 54 1016.4
20180425223205 72 344 3.0 7.0 0.00 0.00 0.00 54 1016.5
20180425222705 72 0 2.0 9.0 0.00 0.00 0.00 54 1016.5
20180425222205 72 329 6.0 12.0 0.00 0.00 0.00 54 1016.5
20180425221705 72 25 3.0 10.0 0.00 0.00 0.00 54 1016.5
20180425221205 72 349 5.0 10.0 0.00 0.00 0.00 54 1016.6
20180425220705 72 338 4.0 10.0 0.00 0.00 0.00 54 1016.6
20180425220205 72 23 3.0 10.0 0.00 0.00 0.00 54 1016.6
20180425215705 71 1 3.0 10.0 0.00 0.00 0.00 54 1016.6
20180425215205 71 331 3.0 10.0 0.00 0.00 0.00 54 1016.6
20180425214706 71 36 3.0 10.0 0.00 0.00 0.00 55 1016.7
20180425214205 71 331 5.0 12.0 0.00 0.00 0.00 55 1016.7
20180425213705 71 15 3.0 12.0 0.00 0.00 0.00 54 1016.8
20180425213205 71 342 3.0 10.0 0.00 0.00 0.00 55 1016.8
20180425212705 71 38 3.0 8.0 0.00 0.00 0.00 55 1016.8
20180425212205 71 359 3.0 8.0 0.00 0.00 0.00 55 1016.8
20180425211705 71 333 3.0 8.0 0.00 0.00 0.00 56 1016.9
20180425211206 71 337 3.0 7.0 0.00 0.00 0.00 55 1016.9
20180425210705 71 352 3.0 7.0 0.00 0.00 0.00 55 1017.0
20180425210206 71 37 3.0 6.0 0.00 0.00 0.00 56 1017.0
20180425205705 71 319 3.0 8.0 0.00 0.00 0.00 56 1017.1
20180425205205 70 336 4.0 12.0 0.00 0.00 0.00 56 1017.1
20180425204705 70 39 0.0 6.0 0.00 0.00 0.00 56 1017.1
20180425204205 70 329 4.0 7.0 0.00 0.00 0.00 57 1017.1
20180425203705 70 28 2.0 7.0 0.00 0.00 0.00 56 1017.2
20180425203205 70 341 3.0 7.0 0.00 0.00 0.00 56 1017.2
20180425202705 70 344 2.0 8.0 0.00 0.00 0.00 57 1017.2
20180425202205 69 43 1.0 6.0 0.00 0.00 0.00 60 1017.2
20180425201705 69 354 2.0 7.0 0.00 0.00 0.00 58 1017.2
20180425201205 69 355 3.0 9.0 0.00 0.00 0.00 58 1017.3
20180425200705 68 302 3.0 6.0 0.00 0.00 0.00 58 1017.4
20180425200206 68 7 2.0 7.0 0.00 0.00 0.00 59 1017.5
20180425195705 68 26 4.0 12.0 0.00 0.00 0.00 59 1017.6
20180425195205 68 11 2.0 5.0 0.00 0.00 0.00 60 1017.6
20180425194706 67 316 3.0 7.0 0.00 0.00 0.00 60 1017.6
20180425194205 67 302 5.0 8.0 0.00 0.00 0.00 61 1017.7
20180425193706 67 49 4.0 8.0 0.00 0.00 0.00 63 1017.7
20180425193205 66 97 2.0 7.0 0.00 0.00 0.00 64 1017.7
20180425192705 66 54 4.0 10.0 0.00 0.00 0.00 65 1017.8
20180425192205 66 54 3.0 7.0 0.00 0.00 0.00 64 1017.8
20180425191705 66 44 3.0 8.0 0.00 0.00 0.00 65 1017.8
20180425191205 65 72 0.0 8.0 0.00 0.00 0.00 64 1017.8
20180425190705 65 55 4.0 8.0 0.00 0.00 0.00 65 1018.0
20180425190205 65 313 2.0 6.0 0.00 0.00 0.00 65 1018.0
20180425185706 64 322 2.0 6.0 0.00 0.00 0.00 66 1018.1
20180425185205 64 40 2.0 3.0 0.00 0.00 0.00 67 1018.1
20180425184705 64 0 1.0 6.0 0.00 0.00 0.00 66 1018.2
20180425184205 63 301 1.0 5.0 0.00 0.00 0.00 68 1018.3
20180425183706 63 312 3.0 6.0 0.00 0.00 0.00 68 1018.3
20180425183205 63 37 3.0 7.0 0.00 0.00 0.00 70 1018.3
20180425182706 62 92 2.0 3.0 0.00 0.00 0.00 70 1018.2
20180425182205 62 355 0.0 7.0 0.00 0.00 0.00 69 1018.3
20180425181706 62 330 2.0 6.0 0.00 0.00 0.00 71 1018.3
20180425181205 61 3 2.0 5.0 0.00 0.00 0.00 73 1018.3
20180425180705 61 272 1.0 7.0 0.00 0.00 0.00 73 1018.3
20180425180205 61 23 2.0 5.0 0.00 0.00 0.00 73 1018.3
20180425175705 61 69 1.0 5.0 0.00 0.00 0.00 75 1018.3
20180425175205 60 64 1.0 6.0 0.00 0.00 0.00 75 1018.3
20180425174705 60 50 1.0 3.0 0.00 0.00 0.00 75 1018.3
20180425174205 60 27 1.0 6.0 0.00 0.00 0.00 77 1018.3
20180425173705 60 77 1.0 6.0 0.00 0.00 0.00 78 1018.3
20180425173205 59 60 2.0 5.0 0.00 0.00 0.00 77 1018.3
20180425172705 59 72 1.0 7.0 0.00 0.00 0.00 78 1018.3
20180425172205 59 41 2.0 6.0 0.00 0.00 0.00 78 1018.3
20180425171706 59 58 2.0 5.0 0.00 0.00 0.00 79 1018.2
20180425171205 59 122 1.0 6.0 0.00 0.00 0.00 80 1018.1
20180425170705 59 67 3.0 6.0 0.00 0.00 0.00 81 1018.1
20180425170206 58 91 4.0 7.0 0.00 0.00 0.00 81 1018.1
20180425165705 58 114 1.0 7.0 0.00 0.00 0.00 81 1018.0
20180425165205 57 50 1.0 5.0 0.00 0.00 0.00 80 1018.0
20180425164705 57 328 0.0 3.0 0.00 0.00 0.00 79 1018.0
20180425164205 57 18 2.0 3.0 0.00 0.00 0.00 80 1018.1
20180425163705 57 317 0.0 2.0 0.00 0.00 0.00 80 1018.0
20180425163205 57 49 0.0 0.0 0.00 0.00 0.00 80 1018.0
20180425162705 57 320 0.0 3.0 0.00 0.00 0.00 80 1018.0
20180425162205 57 290 0.0 1.0 0.00 0.00 0.00 81 1018.0
20180425161705 56 26 2.0 3.0 0.00 0.00 0.00 81 1017.9
20180425161205 56 77 1.0 3.0 0.00 0.00 0.00 82 1017.9
20180425160705 56 60 0.0 5.0 0.00 0.00 0.00 82 1017.9
20180425160205 56 55 1.0 5.0 0.00 0.00 0.00 83 1017.9
20180425155705 56 98 2.0 5.0 0.00 0.00 0.00 83 1017.9
20180425155205 56 93 2.0 6.0 0.00 0.00 0.00 84 1017.9
20180425154705 56 144 1.0 5.0 0.00 0.00 0.00 84 1017.9
20180425154205 56 92 0.0 0.0 0.00 0.00 0.00 84 1017.9
20180425153706 56 92 0.0 0.0 0.00 0.00 0.00 84 1017.9
20180425153205 56 84 1.0 3.0 0.00 0.00 0.00 85 1017.9
20180425152706 55 217 0.0 0.0 0.00 0.00 0.00 85 1017.9
20180425152205 55 217 0.0 0.0 0.00 0.00 0.00 85 1018.0
20180425151705 55 217 0.0 0.0 0.00 0.00 0.00 85 1018.0
20180425151205 55 217 0.0 0.0 0.00 0.00 0.00 85 1018.0
20180425150705 55 217 0.0 0.0 0.00 0.00 0.00 85 1018.0
20180425150205 55 225 0.0 1.0 0.00 0.00 0.00 86 1018.1
20180425145705 55 244 0.0 0.0 0.00 0.00 0.00 85 1018.0
20180425145204 55 282 0.0 0.0 0.00 0.00 0.00 85 1018.0
20180425144706 55 282 0.0 0.0 0.00 0.00 0.00 85 1018.0
20180425144205 55 282 0.0 0.0 0.00 0.00 0.00 85 1018.0
20180425143706 55 282 0.0 0.0 0.00 0.00 0.00 85 1018.1
20180425143205 55 282 0.0 0.0 0.00 0.00 0.00 85 1018.1
20180425142705 55 290 0.0 0.0 0.00 0.00 0.00 85 1018.0
20180425142205 55 296 1.0 2.0 0.00 0.00 0.00 85 1017.9
20180425141705 55 257 0.0 2.0 0.00 0.00 0.00 85 1017.8
20180425141205 55 257 0.0 0.0 0.00 0.00 0.00 85 1017.8
20180425140705 55 257 0.0 0.0 0.00 0.00 0.00 85 1017.7
20180425140205 55 257 0.0 0.0 0.00 0.00 0.00 85 1017.6
20180425135705 55 257 0.0 0.0 0.00 0.00 0.00 85 1017.3
20180425135205 55 257 0.0 1.0 0.00 0.00 0.00 85 1017.3
20180425134705 55 257 0.0 0.0 0.00 0.00 0.00 85 1017.2
20180425134205 55 257 0.0 0.0 0.00 0.00 0.00 85 1017.1
20180425133705 55 295 0.0 0.0 0.00 0.00 0.00 85 1017.1
20180425133205 55 295 0.0 0.0 0.00 0.00 0.00 85 1017.1